Location: ?????
(54.8600°N, 38.5506°E)
Time: 06:20:24
(UTC+00:00)

Daily predictions for brighter satellites

Satellite Brightness Start Highest point End
(mag) Time Altitude Azimuth Time Altitude Azimuth Time Altitude Azimuth
SPOT 5 4.5 18:57:19 10° SSW 19:01:01 27° W 19:04:49 10° NW
SeaSat 1 3.5 18:56:43 10° S 19:01:17 39° WSW 19:05:54 10° NW
Cosmos 2219 Rocket 2.3 18:57:02 10° NW 19:02:44 83° WSW 19:08:26 10° SSE
Cosmos 968 Rocket 3.6 18:57:57 10° S 19:02:59 56° ESE 19:08:05 10° NNE
SJ 16-02 1.8 18:59:19 10° S 19:03:22 41° ESE 19:07:28 10° NE
Cosmos 1570 Rocket 4.4 18:58:24 10° NNW 19:03:44 60° ENE 19:09:01 10° SE
COSMOS 2428 3.0 19:02:36 10° NNW 19:08:17 64° NE 19:13:57 10° SE
USA 234 3.5 19:02:01 10° ENE 19:08:22 49° SE 19:14:40 10° SW
Orbus 7S? 3.3 19:04:32 10° W 19:08:43 71° NNW 19:11:27 10° ENE
Cosmos 1707 Rocket 3.6 19:06:12 10° S 19:10:39 88° E 19:15:06 10° NNE
SPOT 3 Rocket 4.2 19:07:44 10° S 19:12:46 53° W 19:17:52 10° NNW
Cosmos 1814 Rocket 4.4 19:08:26 10° NNW 19:13:41 62° WSW 19:18:56 10° S
Cosmos 1400 Rocket 3.8 19:10:45 10° SW 19:14:29 46° WNW 19:18:11 10° N
Cosmos 1741 Rocket 4.1 19:09:16 10° SSW 19:14:33 85° ESE 19:19:55 10° NNE
Meteor 1-21 4.3 19:09:13 10° S 19:15:01 82° E 19:20:52 10° NNE
ATLAS CENTAUR R/B 0.9 19:14:41 10° SW 19:18:11 67° SE 19:21:50 10° NE
Timation 1 Rocket 4.5 19:12:55 10° SW 19:18:54 84° NW 19:24:55 10° NE
Cosmos 1408 4.4 19:23:54 10° ESE 19:25:20 13° E 19:26:47 10° ENE
Cosmos 1733 Rocket 4.1 19:21:31 10° NNW 19:25:42 42° W 19:29:52 10° SSW
NOSS 5 (C) 4.2 19:23:59 10° NW 19:27:15 72° SW 19:30:22 10° SE
Cosmos 1356 Rocket 3.9 19:23:10 10° SSW 19:27:19 63° WNW 19:31:32 10° N
Cosmos 2360 Rocket 3.4 19:23:02 10° NW 19:28:08 35° WSW 19:33:12 10° S
Cosmos 1953 2.2 19:24:39 10° NNW 19:28:31 89° WNW 19:32:20 10° S
Okean 1-7 3.1 19:25:56 10° S 19:30:11 63° E 19:34:29 10° NNE
Terra 3.4 19:26:10 10° SSW 19:30:15 29° W 19:34:23 10° NNW
Okean 2 3.4 19:27:28 10° S 19:31:25 62° E 19:35:25 10° NNE
BlueWalker 3 3.4 19:31:46 10° S 19:34:18 17° SE 19:36:50 10° E
ARIANE 5 R/B 2.8 19:30:16 10° SSE 19:34:32 61° ENE 19:38:50 10° N
Cosmos 1315 Rocket 2.8 19:31:34 10° S 19:35:30 68° E 19:39:30 10° NNE
Cosmos 2208 Rocket 4.1 19:34:23 10° NNW 19:39:38 81° ENE 19:44:38 11° SSE
Nadezhda 1 Rocket 4.2 19:33:26 10° N 19:39:45 70° ENE 19:45:48 11° SSE
SL-16 R/B 4.4 19:37:24 10° WNW 19:40:44 16° W 19:44:04 10° SW
Cosmos 1908 Rocket 3.6 19:36:59 10° NNW 19:41:21 79° W 19:45:37 10° S
Cosmos 1455 2.2 19:40:17 10° NNW 19:43:47 66° W 19:47:09 11° S
Cosmos 1782 Rocket 3.7 19:40:02 10° N 19:44:21 65° ENE 19:48:19 12° SSE
GP-B 3.2 19:40:21 10° N 19:44:45 63° E 19:48:54 11° S
Cosmos 2333 Rocket 3.7 19:42:27 10° NW 19:47:18 29° WSW 19:52:09 10° SSW
SL-27 R/B 3.6 19:47:59 10° SW 19:50:34 33° WNW 19:53:11 10° N
Aureole 3 4.3 19:47:16 10° SSW 19:51:29 60° WNW 19:56:48 10° N
ATLAS 2AS CENTAUR R/B 3.9 19:48:55 10° WNW 19:54:33 28° WSW 20:00:03 10° S
SL-16 R/B 3.8 19:53:07 10° NNW 19:58:13 32° NE 20:03:17 10° E
Cosmos 1300 Rocket 3.6 19:55:44 10° N 20:00:04 76° ENE 20:03:50 13° SSE
COSMOS 2455 3.7 19:55:26 11° S 20:00:30 32° ESE 20:05:46 10° NE
USA 281 3.3 19:56:48 12° SSE 20:03:03 74° WSW 20:09:41 10° NNW
Cosmos 1833 4.4 19:58:52 10° SW 20:04:30 74° NW 20:10:09 10° NNE
Cosmos 2237 Rocket 2.4 19:59:05 10° NNW 20:04:46 69° NE 20:10:24 10° SE
Landsat 5 4.3 20:01:21 10° N 20:05:13 49° WNW 20:09:12 10° SW
Cosmos 1703 4.4 20:03:35 13° SE 20:06:11 26° E 20:09:20 10° NNE
Cosmos 2322 4.2 20:04:03 10° NW 20:09:31 49° WSW 20:14:26 13° S
NOSS 0 Rocket 4.0 20:05:21 10° NW 20:11:36 76° WSW 20:17:15 13° SSE
Spot 4 4.0 20:08:52 13° SSE 20:13:08 74° ENE 20:17:58 10° NNW
Cosmos 2227 Rocket 4.0 20:11:41 10° SE 20:15:08 17° E 20:18:34 10° ENE
Cosmos 2098 Rocket 4.4 20:08:40 10° N 20:15:12 58° ENE 20:21:01 12° SSE
Meteor 1-4 Rocket 4.0 20:14:12 10° SW 20:16:49 27° WNW 20:19:29 10° N
Cosmos 1980 3.8 20:12:29 10° NNW 20:18:12 85° ENE 20:23:30 12° SE
Okean 2 Rocket 4.3 20:14:40 10° N 20:18:47 34° ENE 20:22:48 10° SE
Cosmos 1242 Rocket 2.3 20:16:40 11° SSW 20:19:14 57° WNW 20:21:58 10° N
Cosmos 1825 4.3 20:20:29 10° ESE 20:22:07 13° E 20:23:47 10° NE
Meteor 1-24 Rocket 4.4 20:18:14 13° SSE 20:22:57 43° E 20:28:11 10° NNE
BREEZE-M DEB (TANK) 1.6 20:20:06 10° W 20:24:08 59° S 20:26:11 10° ESE
ALOS 2 2.8 20:20:31 14° SSE 20:24:16 67° ENE 20:28:38 10° N
H-2A R/B 2.6 20:22:25 15° S 20:25:59 78° WSW 20:30:14 10° NNW
Cosmos 1703 Rocket 4.1 20:22:51 10° SSW 20:27:15 59° WNW 20:31:41 10° N
EXPRESS MD2 3.3 20:26:36 10° WSW 20:28:21 20° S 20:28:21 20° S
Cosmos 2297 Rocket 2.9 20:30:07 14° S 20:34:25 37° ESE 20:39:35 10° NE
SL-4 R/B 2.9 20:31:25 10° W 20:34:55 30° SSW 20:37:39 15° SSE
Cosmos 1709 Rocket 4.1 20:30:06 13° S 20:35:52 75° E 20:42:13 10° NNE
SJ 16-02 3.0 20:37:54 10° WSW 20:41:49 32° NW 20:45:47 10° NNE
Cosmos 2219 Rocket 4.1 20:42:04 10° WNW 20:45:53 19° W 20:49:42 10° SW
Sich 1 Rocket 4.0 20:41:41 10° N 20:46:02 56° ENE 20:49:36 15° SSE
CZ-4C R/B 2.4 20:43:51 13° SSW 20:47:45 45° SE 20:53:18 10° NE
Cosmos 2242 Rocket 3.7 20:46:03 14° SSW 20:50:00 85° W 20:54:37 10° N
USA 234 3.3 20:45:11 10° ENE 20:51:46 89° N 20:58:21 10° WSW
COSMOS 2428 3.8 20:47:15 10° NW 20:52:13 32° WSW 20:56:33 13° SSW
CENTAUR R/B 3.8 20:49:56 14° SSE 20:53:35 24° ESE 20:58:49 10° ENE
NOSS 8 (E) 4.3 20:50:06 10° SW 20:53:43 62° SE 20:56:42 10° NE
ATLAS CENTAUR R/B 3.2 20:52:56 10° W 20:56:08 29° NNW 20:59:27 10° NE
Cosmos 1408 2.8 20:55:18 14° SSW 20:57:41 46° WNW 21:00:37 10° N
Meteor 2-5 Rocket 3.8 20:58:01 14° S 21:03:05 80° E 21:08:55 10° NNE
Cosmos 2263 Rocket 4.1 21:02:27 10° SE 21:05:44 16° E 21:09:01 10° ENE
Cosmos 1818 4.3 21:00:55 10° NW 21:06:21 57° NE 21:11:45 10° ESE
Cosmos 405 Rocket 2.9 21:05:27 10° NNW 21:09:10 59° W 21:11:47 18° S
Cosmos 1174 4.5 21:05:33 10° NW 21:10:34 50° WSW 21:13:35 17° SSE
ARIANE 5 R/B 4.5 21:08:04 10° SW 21:11:19 21° W 21:14:36 10° NW
BlueWalker 3 2.0 21:08:15 10° SW 21:11:52 48° SSE 21:15:29 10° E
Okean 1 Rocket 3.2 21:10:30 10° N 21:14:51 69° ENE 21:18:20 16° SSE
Cosmos 371 Rocket 3.4 21:15:10 11° SSW 21:19:46 78° WNW 21:24:38 10° NNE
Cosmos 2084 Rocket 3.9 21:20:54 17° SSW 21:23:52 42° SE 21:27:46 10° ENE
PSLV R/B 3.5 21:22:51 10° NNE 21:27:06 78° ESE 21:30:16 17° S
Cosmos 1263 4.5 21:25:25 10° NNW 21:29:08 69° W 21:31:11 20° S
Cosmos 1538 Rocket 4.0 21:24:27 10° NNW 21:29:42 89° ENE 21:34:29 13° SSE
NOSS 8 (H) 4.2 21:26:53 10° SW 21:30:19 85° NW 21:33:14 10° NE
Cosmos 1777 Rocket 4.0 21:25:44 14° SSW 21:30:20 83° ESE 21:35:39 10° NNE
H-2A R/B 2.3 21:26:55 10° NNE 21:31:09 58° ESE 21:34:11 17° S
Cosmos 1503 Rocket 4.1 21:26:53 12° SSW 21:31:49 84° WNW 21:37:09 10° NNE
Cosmos 1892 2.4 21:31:59 19° S 21:34:23 83° E 21:37:55 10° NNE
Cosmos 2181 Rocket 4.3 21:31:00 10° NNW 21:37:03 56° W 21:42:03 15° SSW
Cosmos 1703 4.5 21:38:07 11° SW 21:41:21 32° WNW 21:44:43 10° N
SL-16 R/B 2.2 21:37:11 10° NW 21:42:55 78° WSW 21:48:23 11° SSE
Cosmos 1975 Rocket 4.5 21:39:37 11° SSE 21:43:09 29° E 21:46:58 10° NNE
NOSS 3-2 (A) 4.3 21:40:26 15° SSE 21:43:58 29° ESE 21:49:09 10° ENE
Helios 1A Rocket 4.0 21:42:04 10° SE 21:45:33 36° ENE 21:49:05 10° N
COSMOS 2455 3.1 21:40:01 10° SW 21:46:03 73° NW 21:52:07 10° NE
GEOS 3 Rocket 4.5 21:42:22 10° ENE 21:47:02 34° ESE 21:50:33 16° S
Cosmos 2237 Rocket 3.4 21:43:39 10° NW 21:48:25 29° WSW 21:52:14 14° SSW
Cosmos 1455 Rocket 3.3 21:45:57 10° N 21:50:25 70° ENE 21:54:16 14° SSE
Cosmos 2074 Rocket 4.0 21:46:00 15° S 21:51:15 89° W 21:57:31 10° N
Orbus 7S? 2.4 21:49:19 10° WNW 21:52:02 76° SSW 21:55:05 10° ESE
Cosmos 1328 3.7 21:51:50 18° S 21:54:39 79° E 21:58:33 10° NNE
Cosmos 1943 3.8 21:50:17 10° NNW 21:55:50 57° NE 22:01:22 10° SE
Cosmos 1825 2.1 21:53:24 18° SSW 21:55:50 63° WNW 21:59:15 10° N
Okean 2 Rocket 4.1 21:52:44 10° NNW 21:56:49 36° W 22:00:06 15° SSW
Cosmos 923 Rocket 4.2 21:52:12 10° NNW 21:57:31 74° ENE 22:02:44 10° SSE
CZ-2C R/B 4.4 21:53:43 10° ESE 21:58:15 29° ENE 22:02:54 10° N
Cosmos 2227 Rocket 2.2 21:53:22 14° SSW 21:58:15 76° ESE 22:03:56 10° NE
Cosmos 1869 4.4 21:56:01 10° N 21:59:29 36° ENE 22:02:55 10° SE
ALOS 2 4.4 21:57:54 10° SW 22:01:02 19° W 22:04:15 10° NW
Cosmos 1674 Rocket 4.0 21:58:17 14° SSW 22:01:50 54° WNW 22:06:07 10° N
Cosmos 1378 Rocket 4.2 21:58:19 13° SW 22:01:59 47° WNW 22:06:16 10° N
Cosmos 292 Rocket 4.5 21:58:57 15° S 22:02:33 42° ESE 22:07:04 10° NE
Cosmos 1025 Rocket 3.1 22:00:50 17° S 22:04:11 77° E 22:08:30 10° NNE
Cosmos 1898 Rocket 4.2 22:07:10 14° S 22:11:15 41° ESE 22:16:06 10° NE
Cosmos 332 Rocket 4.0 22:09:30 12° SW 22:13:58 70° WNW 22:18:53 10° NNE
Aureole 1 Rocket 3.4 22:14:13 16° S 22:17:02 52° ESE 22:21:42 10° NNE
Cosmos 2297 Rocket 2.8 22:12:46 10° SW 22:18:18 55° NW 22:23:53 10° NNE
Nadezhda 3 Rocket 4.4 22:16:46 10° NNW 22:22:51 54° W 22:28:07 14° SSW
Cosmos 2219 3.3 22:18:32 14° SSW 22:23:18 68° ESE 22:28:54 10° NE
Cosmos 1606 2.8 22:21:49 10° N 22:25:23 65° ENE 22:28:47 11° SSE
Resurs 1-4 Rocket 3.9 22:21:42 10° NE 22:25:49 22° E 22:29:55 10° SE
Meteor 1-21 Rocket 4.3 22:23:19 14° SSW 22:28:19 88° WNW 22:34:01 10° NNE
Cosmos 2218 Rocket 4.5 22:28:40 10° SSE 22:34:43 55° E 22:40:43 10° NNE
USA 234 3.5 22:28:13 10° E 22:34:45 75° N 22:41:18 10° W
ATLAS CENTAUR R/B 4.1 22:32:07 10° NW 22:34:47 18° N 22:37:32 10° NE
CZ-4C R/B 2.8 22:31:05 10° WSW 22:36:02 58° NNW 22:42:25 10° NE
Cosmos 1680 Rocket 3.5 22:33:53 10° NNW 22:39:06 75° WSW 22:44:18 10° SSE
Cosmos 2366 rocket 4.4 22:33:06 10° S 22:39:11 61° E 22:45:19 10° NNE
Cosmos 2112 Rocket 4.0 22:36:55 10° NNW 22:42:09 81° WSW 22:47:19 10° SSE
BREEZE-M DEB (TANK) 3.6 22:38:41 10° W 22:42:50 20° SW 22:44:22 15° S
CENTAUR R/B 2.6 22:37:04 10° SW 22:43:03 82° SE 22:50:35 10° NE
Cosmos 2263 Rocket 2.2 22:43:42 13° SSW 22:48:44 75° ESE 22:54:18 10° NE
BlueWalker 3 1.8 22:46:07 10° W 22:49:51 70° S 22:53:35 10° E
Cosmos 1818 4.0 22:44:41 10° NW 22:49:52 44° WSW 22:55:01 10° SSE
Meteor 2-1 Rocket 4.5 22:45:09 10° NNW 22:51:00 62° W 22:56:38 10° S
Cosmos 990 Rocket 4.4 22:47:52 10° SW 22:52:54 57° WNW 22:57:59 10° NNE
Cosmos 2228 3.0 22:49:49 10° N 22:54:11 86° ENE 22:58:29 10° SSE
Cosmos 1544 Rocket 3.7 22:57:56 10° NNW 23:02:21 64° W 23:06:43 10° S
Cosmos 2084 Rocket 4.2 22:58:50 10° WSW 23:02:57 50° NNW 23:06:55 10° NE
H-2A R/B 3.8 23:03:08 10° N 23:06:32 23° WNW 23:09:52 10° WSW
Cosmos 1844 Rocket 4.1 23:03:20 10° SSE 23:08:02 29° ESE 23:12:45 10° NE
SL-8 Rocket 4.0 23:03:22 11° SSW 23:09:22 80° W 23:15:38 10° N
MOZ.5/SAFIR/RUBIN 5/SL-8 3.9 23:04:55 10° S 23:09:29 58° WSW 23:14:05 10° NNW
IDEFIX/ARIANE 42P 3.0 23:04:36 10° NNE 23:09:48 57° E 23:14:57 10° S
SL-16 R/B 3.3 23:06:48 10° SE 23:12:52 56° ENE 23:18:55 10° NNW
Cosmos 1048 Rocket 4.3 23:08:57 10° NNW 23:14:11 72° ENE 23:19:27 10° SE
Meteor 1-27 4.3 23:08:19 10° NNW 23:14:12 86° WSW 23:20:00 10° S
Cosmos 724 4.4 23:11:25 10° NW 23:17:15 86° NE 23:23:06 10° SE
Helios 1A Rocket 3.9 23:16:52 11° SSW 23:19:58 27° W 23:23:15 10° NW
Cosmos 1975 Rocket 3.9 23:16:41 10° SW 23:20:48 41° WNW 23:25:01 10° N
CZ-2C R/B 3.9 23:16:36 10° NNE 23:21:54 47° E 23:26:52 10° S
SL-19 R/B 4.4 23:20:45 10° N 23:23:41 40° WNW 23:26:24 10° SW
Cosmos 372 Rocket 4.2 23:19:22 10° SW 23:24:35 72° WNW 23:29:50 10° NNE
Cosmos 494 Rocket 4.0 23:19:33 10° NNW 23:24:48 77° WSW 23:30:03 10° SSE
Cosmos 1727 Rocket 4.1 23:18:53 10° NNW 23:25:15 82° W 23:31:36 10° S
Meteor 1-28 Rocket 4.1 23:22:00 10° SE 23:25:24 46° ENE 23:28:50 10° N
GEOS 3 Rocket 3.8 23:20:13 10° NE 23:25:25 74° NW 23:30:32 10° WSW
ALOS 4.2 23:21:50 10° NE 23:25:38 24° E 23:29:25 10° SSE
SL-16 R/B 3.8 23:22:33 10° WNW 23:26:09 17° W 23:29:43 10° SW
Cosmos 1461 2.7 23:23:26 10° SW 23:27:22 75° SE 23:31:15 10° NE
Cosmos 921 Rocket 2.9 23:25:23 10° NNW 23:29:39 78° WSW 23:33:50 10° SSE
Meteor 2-13 Rocket 4.5 23:24:42 10° NNW 23:30:48 74° W 23:36:52 10° S
Cosmos 1603 3.9 23:26:16 10° NW 23:31:56 58° WSW 23:37:31 10° SSE
CZ-2D R/B 2.5 23:26:56 10° NNE 23:32:16 62° ESE 23:37:30 10° S
NOSS 3-2 (A) 3.5 23:28:33 10° SW 23:34:02 81° NW 23:40:46 10° NE
Cosmos 1606 Rocket 3.6 23:33:17 10° NNW 23:37:47 89° ENE 23:42:13 10° S
CZ-2C R/B 2.8 23:32:55 10° S 23:38:11 64° WSW 23:43:37 10° NNW
Cosmos 1943 3.9 23:34:37 10° NW 23:39:41 35° WSW 23:44:43 10° S
FENGYUN 3A 4.3 23:35:47 10° NNE 23:41:03 52° E 23:46:18 10° S
NOSS 3-2 (C) 3.5 23:35:46 10° SW 23:41:10 70° SE 23:47:41 10° NE
Cosmos 2082 4.1 23:35:55 10° SW 23:41:28 59° NW 23:47:04 10° NNE
Cosmos 1867 4.3 23:36:33 10° SSW 23:41:43 45° ESE 23:46:56 10° NE
Cosmos 2227 Rocket 3.6 23:37:45 10° W 23:42:51 33° NW 23:47:57 10° NNE
Cosmos 1937 Rocket 3.9 23:41:41 10° SW 23:46:53 58° WNW 23:52:05 10° NNE
Cosmos 1437 Rocket 2.7 23:43:21 10° S 23:47:09 85° ESE 23:50:56 10° NNE
ADEOS II 2.6 23:43:09 10° NNE 23:48:22 59° ESE 23:53:32 10° S
MSX 3.9 23:43:02 10° NNE 23:48:49 89° W 23:54:33 10° SSW
Cosmos 1536 Rocket 3.7 23:45:58 10° SSW 23:50:23 66° WNW 23:54:49 10° N
